Location: Caseificio
(44.7500°N, 11.0500°E)
Time: 21:18:15
(UTC+00:00)

NOSS 2-2 (D) - Pass Details

Date: 26 May 2022
Orbit: 437 x 1764 km, 63.3° (Epoch: 11 June)

Event Time Altitude Azimuth Distance (km) Brightness Sun altitude
Rises 00:00:17 0° 322° (NW) 3,022 7.7 -23.3°
Reaches altitude 10° 00:02:17 10° 322° (NW) 2,247 6.9 -23.2°
Maximum altitude 00:07:28 89° 242° (WSW) 931 4.3 -23.0°
Enters shadow 00:11:38 26° 144° (SE) 1,986 5.8 -22.8°
